EW2318 Weather Reports


Display with metric or nautical units.
time (UTC)temp
F
wind
direction
speed
MPH
gust
MPH
rain 1hr
in
rain 24hr
in
rain mn
in
humidity
%
barometer
mb
20190123230303 17 49 0.0 3.0 0.00 0.00 0.00 94 1008.3
20190123225803 17 63 0.0 3.0 0.00 0.00 0.00 94 1008.3
20190123225307 17 39 0.0 5.0 0.00 0.00 0.00 94 1008.3
20190123224802 17 44 1.0 5.0 0.00 0.00 0.00 94 1008.3
20190123224303 17 45 0.0 3.0 0.00 0.00 0.00 94 1008.3
20190123223806 17 67 0.0 7.0 0.00 0.00 0.00 94 1008.4
20190123223302 17 81 1.0 5.0 0.00 0.00 0.00 94 1008.4
20190123222802 17 40 1.0 3.0 0.00 0.00 0.00 94 1008.4
20190123222306 17 67 1.0 3.0 0.00 0.00 0.00 94 1008.4
20190123221803 17 38 0.0 5.0 0.00 0.00 0.00 94 1008.4
20190123221303 17 44 0.0 5.0 0.00 0.00 0.00 94 1008.4
20190123220806 18 46 0.0 3.0 0.00 0.00 0.00 94 1008.5
20190123220303 18 48 0.0 6.0 0.00 0.00 0.00 94 1008.5
20190123215803 18 32 0.0 5.0 0.00 0.00 0.00 94 1008.5
20190123215306 18 42 1.0 5.0 0.00 0.00 0.00 94 1008.4
20190123214803 18 55 1.0 6.0 0.00 0.00 0.00 94 1008.4
20190123214302 18 46 1.0 3.0 0.00 0.00 0.00 94 1008.4
20190123213806 18 53 0.0 3.0 0.00 0.00 0.00 94 1008.4
20190123213302 18 54 2.0 10.0 0.00 0.00 0.00 94 1008.4
20190123212802 18 76 1.0 5.0 0.00 0.00 0.00 94 1008.2
20190123212306 18 57 2.0 6.0 0.00 0.00 0.00 94 1008.2
20190123211803 18 74 0.0 3.0 0.00 0.00 0.00 94 1008.1
20190123211302 17 59 0.0 5.0 0.00 0.00 0.00 94 1008.1
20190123210806 17 56 2.0 9.0 0.00 0.00 0.00 94 1008.1
20190123210302 17 47 1.0 5.0 0.00 0.00 0.00 94 1008.1
20190123205802 17 62 0.0 6.0 0.00 0.00 0.00 94 1008.1
20190123205306 17 65 1.0 6.0 0.00 0.00 0.00 94 1008.1
20190123204803 17 67 1.0 6.0 0.00 0.00 0.00 94 1008.2
20190123204303 17 79 2.0 7.0 0.00 0.00 0.00 94 1008.1
20190123203806 18 70 2.0 7.0 0.00 0.00 0.00 94 1008.0
20190123203302 18 77 1.0 8.0 0.00 0.00 0.00 94 1008.0
20190123202802 18 84 0.0 6.0 0.00 0.00 0.00 94 1008.0
20190123202306 18 81 1.0 6.0 0.00 0.00 0.00 94 1008.0
20190123201802 18 72 1.0 9.0 0.00 0.00 0.00 94 1008.0
20190123201303 18 59 0.0 3.0 0.00 0.00 0.00 94 1008.0
20190123200806 18 89 1.0 6.0 0.00 0.00 0.00 94 1007.9
20190123200302 18 77 1.0 8.0 0.00 0.00 0.00 94 1007.8
20190123195802 18 57 1.0 6.0 0.00 0.00 0.00 94 1007.8
20190123195306 18 88 1.0 3.0 0.00 0.00 0.00 94 1007.8
20190123194803 18 34 2.0 6.0 0.00 0.00 0.00 94 1007.7
20190123194302 18 63 1.0 8.0 0.00 0.00 0.00 94 1007.7
20190123193807 18 50 1.0 6.0 0.00 0.00 0.00 94 1007.5
20190123193302 18 77 2.0 8.0 0.00 0.00 0.00 94 1007.5
20190123192803 18 44 2.0 12.0 0.00 0.00 0.00 94 1007.5
20190123192306 18 40 0.0 5.0 0.00 0.00 0.00 94 1007.5
20190123191803 19 54 2.0 8.0 0.00 0.00 0.00 94 1007.5
20190123191302 19 48 1.0 6.0 0.00 0.00 0.00 94 1007.5
20190123190807 19 69 2.0 8.0 0.00 0.00 0.00 94 1007.5
20190123190303 19 50 0.0 9.0 0.00 0.00 0.00 94 1007.5
20190123185803 19 67 1.0 8.0 0.00 0.00 0.00 94 1007.4
20190123185306 19 77 2.0 6.0 0.00 0.00 0.00 94 1007.4
20190123184803 19 78 1.0 3.0 0.00 0.00 0.00 94 1007.4
20190123184306 19 87 1.0 6.0 0.00 0.00 0.00 94 1007.3
20190123183806 19 45 0.0 3.0 0.00 0.00 0.00 94 1007.3
20190123183303 19 30 0.0 3.0 0.00 0.00 0.00 94 1007.3
20190123182803 19 51 0.0 3.0 0.00 0.00 0.00 94 1007.3
20190123182306 19 55 2.0 7.0 0.00 0.00 0.00 94 1007.4
20190123181803 19 76 1.0 6.0 0.00 0.00 0.00 94 1007.3
20190123181303 19 51 0.0 3.0 0.00 0.00 0.00 94 1007.1
20190123180807 19 45 1.0 8.0 0.00 0.00 0.00 94 1007.1
20190123180303 19 41 1.0 6.0 0.00 0.00 0.00 94 1007.0
20190123175803 19 42 0.0 3.0 0.00 0.00 0.00 94 1007.1
20190123175306 19 79 1.0 6.0 0.00 0.00 0.00 94 1007.2
20190123174803 19 61 0.0 3.0 0.00 0.00 0.00 94 1007.3
20190123174303 19 52 1.0 5.0 0.00 0.00 0.00 94 1007.2
20190123173806 19 49 1.0 7.0 0.00 0.00 0.00 94 1007.2
20190123173303 19 36 1.0 3.0 0.00 0.00 0.00 94 1007.2
20190123172802 19 52 1.0 3.0 0.00 0.00 0.00 94 1007.2
20190123172307 19 52 1.0 8.0 0.00 0.00 0.00 94 1007.2
20190123171802 19 78 1.0 6.0 0.00 0.00 0.00 94 1007.2
20190123171303 19 89 1.0 9.0 0.00 0.00 0.00 94 1007.1
20190123170806 19 56 1.0 5.0 0.00 0.00 0.00 94 1007.1
20190123170303 19 52 0.0 7.0 0.00 0.00 0.00 94 1007.1
20190123165802 19 62 1.0 7.0 0.00 0.00 0.00 94 1007.2
20190123165306 19 80 0.0 3.0 0.00 0.00 0.00 94 1007.1
20190123164802 19 86 0.0 7.0 0.00 0.00 0.00 94 1007.1
20190123164303 19 63 2.0 5.0 0.00 0.00 0.00 94 1007.0
20190123163806 19 76 2.0 8.0 0.00 0.00 0.00 94 1007.0
20190123163302 19 70 1.0 8.0 0.00 0.00 0.00 94 1007.0
20190123162803 19 52 0.0 6.0 0.00 0.00 0.00 94 1007.0
20190123162306 19 44 1.0 3.0 0.00 0.00 0.00 94 1006.9
20190123161802 20 69 2.0 7.0 0.00 0.00 0.00 94 1007.0
20190123161303 19 35 2.0 6.0 0.00 0.00 0.00 94 1006.9
20190123160806 20 82 1.0 5.0 0.00 0.00 0.00 94 1006.9
20190123160302 19 82 1.0 5.0 0.00 0.00 0.00 94 1006.9
20190123155803 19 60 0.0 6.0 0.00 0.00 0.00 94 1006.8
20190123155307 19 47 1.0 3.0 0.00 0.00 0.00 94 1006.8
20190123154803 19 45 0.0 5.0 0.00 0.00 0.00 94 1006.8
20190123154302 19 62 0.0 3.0 0.00 0.00 0.00 94 1006.8
20190123153807 19 71 0.0 2.0 0.00 0.00 0.00 94 1006.7
20190123153306 19 72 1.0 5.0 0.00 0.00 0.00 94 1006.7
20190123152804 19 74 2.0 8.0 0.00 0.00 0.00 94 1006.7
20190123152306 19 81 1.0 3.0 0.00 0.00 0.00 94 1006.7
20190123151803 19 47 0.0 8.0 0.00 0.00 0.00 94 1006.6
20190123151303 19 59 1.0 5.0 0.00 0.00 0.00 94 1006.7
20190123150806 19 53 1.0 3.0 0.00 0.00 0.00 94 1006.6
20190123150303 19 79 1.0 8.0 0.00 0.00 0.00 94 1006.5
20190123145803 19 59 0.0 6.0 0.00 0.00 0.00 94 1006.5
20190123145306 19 70 1.0 5.0 0.00 0.00 0.00 94 1006.6
20190123144803 19 101 2.0 8.0 0.00 0.00 0.00 94 1006.6
20190123144302 19 64 0.0 3.0 0.00 0.00 0.00 94 1006.5
20190123143807 19 64 0.0 3.0 0.00 0.00 0.00 94 1006.4
20190123143303 19 63 0.0 5.0 0.00 0.00 0.00 94 1006.4
20190123142802 19 76 0.0 2.0 0.00 0.00 0.00 94 1006.4
20190123142306 19 78 0.0 3.0 0.00 0.00 0.00 94 1006.4
20190123141802 19 78 0.0 3.0 0.00 0.00 0.00 94 1006.4
20190123141303 19 79 0.0 3.0 0.00 0.00 0.00 94 1006.3
20190123140807 19 79 1.0 5.0 0.00 0.00 0.00 94 1006.2
20190123140303 19 78 0.0 6.0 0.00 0.00 0.00 94 1006.3
20190123135803 19 51 0.0 3.0 0.00 0.00 0.00 94 1006.2
20190123135307 19 45 0.0 3.0 0.00 0.00 0.00 94 1006.2
20190123134802 19 37 1.0 5.0 0.00 0.00 0.00 94 1006.2
20190123134303 19 37 0.0 3.0 0.00 0.00 0.00 94 1006.2
20190123133806 19 36 0.0 2.0 0.00 0.00 0.00 94 1006.2
20190123133303 19 57 0.0 3.0 0.00 0.00 0.00 94 1006.2
20190123132802 19 70 0.0 5.0 0.00 0.00 0.00 94 1006.1
20190123132306 19 72 2.0 6.0 0.00 0.00 0.00 94 1006.2
20190123131803 19 85 3.0 7.0 0.00 0.00 0.00 94 1006.2
20190123131304 18 63 1.0 6.0 0.00 0.00 0.00 94 1006.2
20190123130807 18 72 1.0 5.0 0.00 0.00 0.00 94 1006.1
20190123130303 18 87 3.0 10.0 0.00 0.00 0.00 93 1006.1
20190123125804 18 80 1.0 3.0 0.00 0.00 0.00 94 1006.1
20190123125306 18 58 1.0 6.0 0.00 0.00 0.00 93 1006.1
20190123124803 18 46 0.0 6.0 0.00 0.00 0.00 94 1006.1
20190123124303 18 55 1.0 7.0 0.00 0.00 0.00 94 1006.0
20190123123806 18 77 0.0 3.0 0.00 0.00 0.00 94 1006.1
20190123123303 18 74 0.0 3.0 0.00 0.00 0.00 94 1006.1
20190123122802 18 55 0.0 3.0 0.00 0.00 0.00 94 1006.2
20190123122306 18 36 0.0 3.0 0.00 0.00 0.00 94 1006.2
20190123121802 18 61 0.0 2.0 0.00 0.00 0.00 93 1006.2
20190123121303 18 60 0.0 3.0 0.00 0.00 0.00 93 1006.1
20190123120806 18 70 0.0 3.0 0.00 0.00 0.00 93 1006.1
20190123120303 18 25 0.0 3.0 0.00 0.00 0.00 93 1006.1
20190123115802 18 25 0.0 3.0 0.00 0.00 0.00 93 1006.1
20190123115307 18 33 1.0 3.0 0.00 0.00 0.00 93 1006.2
20190123114802 18 31 0.0 5.0 0.00 0.00 0.00 93 1006.3
20190123114302 18 38 1.0 5.0 0.00 0.00 0.00 93 1006.3
20190123113807 18 60 0.0 5.0 0.00 0.00 0.00 93 1006.3
20190123113303 18 57 1.0 5.0 0.00 0.00 0.00 93 1006.4
20190123112802 18 46 0.0 2.0 0.00 0.00 0.00 93 1006.4
20190123112307 18 49 0.0 5.0 0.00 0.00 0.00 93 1006.4
20190123111803 18 45 0.0 2.0 0.00 0.00 0.00 93 1006.5
20190123111303 18 40 0.0 2.0 0.00 0.00 0.00 93 1006.6
20190123110806 17 47 0.0 5.0 0.00 0.00 0.00 93 1006.6
20190123110303 17 36 1.0 3.0 0.00 0.00 0.00 93 1006.6
20190123105803 17 59 0.0 2.0 0.00 0.00 0.00 93 1006.7
20190123105307 17 52 1.0 5.0 0.00 0.00 0.00 93 1006.8
20190123104804 17 49 0.0 2.0 0.00 0.00 0.00 93 1006.8
20190123104303 17 45 0.0 5.0 0.00 0.00 0.00 93 1006.8
20190123103806 17 49 1.0 5.0 0.00 0.00 0.00 93 1006.9
20190123103302 17 74 0.0 9.0 0.00 0.00 0.00 93 1007.0
20190123102803 17 58 0.0 3.0 0.00 0.00 0.00 93 1007.1
20190123102306 17 64 1.0 3.0 0.00 0.00 0.00 93 1007.1
20190123101803 17 67 1.0 6.0 0.00 0.00 0.00 93 1007.1
20190123101302 17 76 2.0 7.0 0.00 0.00 0.00 93 1007.1
20190123100807 17 83 1.0 5.0 0.00 0.00 0.00 93 1007.1
20190123100303 16 59 1.0 3.0 0.00 0.00 0.00 93 1007.2
20190123095803 16 53 0.0 7.0 0.00 0.00 0.00 93 1007.2
20190123095307 16 78 0.0 8.0 0.00 0.00 0.00 93 1007.2
20190123094803 16 69 1.0 3.0 0.00 0.00 0.00 93 1007.2
20190123094303 16 43 1.0 3.0 0.00 0.00 0.00 93 1007.2
20190123093807 16 61 0.0 3.0 0.00 0.00 0.00 93 1007.2
20190123093303 16 82 1.0 6.0 0.00 0.00 0.00 93 1007.2
20190123092803 16 60 1.0 5.0 0.00 0.00 0.00 93 1007.3
20190123092306 15 52 1.0 5.0 0.00 0.00 0.00 93 1007.2
20190123091803 15 53 0.0 3.0 0.00 0.00 0.00 93 1007.3
20190123091302 15 45 1.0 3.0 0.00 0.00 0.00 93 1007.2
20190123090806 15 50 0.0 3.0 0.00 0.00 0.00 92 1007.3
20190123090302 15 43 0.0 5.0 0.00 0.00 0.00 93 1007.3
20190123085803 15 40 0.0 3.0 0.00 0.00 0.00 92 1007.3
20190123085307 14 44 1.0 5.0 0.00 0.00 0.00 92 1007.3
20190123084803 14 33 0.0 3.0 0.00 0.00 0.00 92 1007.4
20190123084303 14 38 0.0 3.0 0.00 0.00 0.00 92 1007.4
20190123083807 14 48 1.0 6.0 0.00 0.00 0.00 92 1007.4
20190123083303 13 33 1.0 5.0 0.00 0.00 0.00 92 1007.3
20190123082803 13 42 1.0 3.0 0.00 0.00 0.00 92 1007.3
20190123082306 13 20 1.0 6.0 0.00 0.00 0.00 92 1007.4
20190123081802 13 35 0.0 3.0 0.00 0.00 0.00 92 1007.4
20190123081302 13 43 0.0 3.0 0.00 0.00 0.00 92 1007.4
20190123080806 12 30 1.0 6.0 0.00 0.00 0.00 92 1007.5
20190123080302 11 30 0.0 3.0 0.00 0.00 0.00 91 1007.6
20190123075803 11 33 0.0 2.0 0.00 0.00 0.00 91 1007.4
20190123075307 10 34 0.0 3.0 0.00 0.00 0.00 91 1007.5
20190123074803 10 40 0.0 3.0 0.00 0.00 0.00 91 1007.5
20190123074303 9 40 0.0 3.0 0.00 0.00 0.00 91 1007.6
20190123073806 9 40 0.0 3.0 0.00 0.00 0.00 91 1007.6
20190123073303 9 48 0.0 3.0 0.00 0.00 0.00 91 1007.6
20190123072802 9 53 0.0 2.0 0.00 0.00 0.00 91 1007.7
20190123072306 10 55 0.0 3.0 0.00 0.00 0.00 91 1007.8
20190123071803 9 62 0.0 3.0 0.00 0.00 0.00 91 1007.7
20190123071302 9 66 0.0 0.0 0.00 0.00 0.00 91 1007.9
20190123070807 9 66 0.0 0.0 0.00 0.00 0.00 91 1008.0
20190123070302 9 67 0.0 1.0 0.00 0.00 0.00 91 1007.9
20190123065803 9 66 0.0 2.0 0.00 0.00 0.00 91 1007.9
20190123065307 9 70 0.0 3.0 0.00 0.00 0.00 91 1007.8
20190123064803 9 71 1.0 5.0 0.00 0.00 0.00 91 1007.8
20190123064302 9 78 1.0 3.0 0.00 0.00 0.00 91 1007.9
20190123063806 9 75 1.0 3.0 0.00 0.00 0.00 91 1007.9
20190123063303 8 76 0.0 3.0 0.00 0.00 0.00 91 1007.9
20190123062804 8 76 0.0 2.0 0.00 0.00 0.00 91 1007.9
20190123062307 8 76 0.0 3.0 0.00 0.00 0.00 91 1007.8
20190123061803 8 77 0.0 0.0 0.00 0.00 0.00 91 1007.8
20190123061303 8 77 0.0 0.0 0.00 0.00 0.00 92 1007.8
20190123060806 8 77 0.0 1.0 0.00 0.00 0.00 91 1007.8
20190123060303 8 77 0.0 2.0 0.00 0.00 0.00 91 1007.8
20190123055802 7 77 0.0 3.0 0.00 0.00 0.00 91 1007.7
20190123055307 7 76 0.0 1.0 0.00 0.00 0.00 92 1007.8
20190123054803 7 76 0.0 3.0 0.00 0.00 0.00 91 1007.8
20190123054303 7 74 1.0 5.0 0.00 0.00 0.00 92 1007.8
20190123053806 6 72 1.0 3.0 0.00 0.00 0.00 91 1007.8
20190123053303 6 67 1.0 3.0 0.00 0.00 0.00 91 1007.9
20190123052803 5 69 1.0 6.0 0.00 0.00 0.00 91 1007.9
20190123052307 5 76 2.0 6.0 0.00 0.00 0.00 91 1008.0
20190123051803 5 73 2.0 5.0 0.00 0.00 0.00 91 1007.9
20190123051302 5 67 2.0 5.0 0.00 0.00 0.00 90 1007.9
20190123050806 5 51 2.0 3.0 0.00 0.00 0.00 90 1007.9
20190123050302 5 17 1.0 5.0 0.00 0.00 0.00 90 1007.8
20190123045802 5 12 1.0 3.0 0.00 0.00 0.00 90 1007.8
20190123045306 4 11 1.0 5.0 0.00 0.00 0.00 90 1007.8
20190123044803 4 11 1.0 3.0 0.00 0.00 0.00 90 1007.8
20190123044302 4 11 0.0 3.0 0.00 0.00 0.00 90 1007.8
20190123043806 4 11 0.0 0.0 0.00 0.00 0.00 90 1007.8
20190123043302 4 11 0.0 0.0 0.00 0.00 0.00 90 1007.8
20190123042802 4 11 0.0 0.0 0.00 0.00 0.00 90 1007.8
20190123042307 4 11 0.0 0.0 0.00 0.00 0.00 90 1007.8
20190123041805 4 11 0.0 2.0 0.00 0.00 0.00 90 1007.9
20190123041303 4 11 0.0 0.0 0.00 0.00 0.00 90 1007.9
20190123040809 4 11 0.0 0.0 0.00 0.00 0.00 90 1007.8
20190123040303 4 11 0.0 0.0 0.00 0.00 0.00 90 1007.8
20190123035803 4 11 0.0 0.0 0.00 0.00 0.00 90 1007.9
20190123035307 3 11 0.0 0.0 0.00 0.00 0.00 90 1007.9
20190123034803 3 11 0.0 0.0 0.00 0.00 0.00 89 1008.0
20190123034302 3 11 0.0 0.0 0.00 0.00 0.00 89 1008.0
20190123033807 3 11 0.0 0.0 0.00 0.00 0.00 89 1008.1
20190123033303 3 11 0.0 0.0 0.00 0.00 0.00 89 1008.1
20190123032803 2 11 0.0 0.0 0.00 0.00 0.00 89 1008.1
20190123032306 2 11 0.0 0.0 0.00 0.00 0.00 89 1008.1
20190123031802 2 11 0.0 0.0 0.00 0.00 0.00 89 1008.2
20190123031304 2 11 0.0 0.0 0.00 0.00 0.00 89 1008.1
20190123030808 1 11 0.0 0.0 0.00 0.00 0.00 89 1008.2
20190123030303 1 11 0.0 0.0 0.00 0.00 0.00 89 1008.3
20190123025803 1 11 0.0 0.0 0.00 0.00 0.00 89 1008.3
20190123025307 1 11 0.0 0.0 0.00 0.00 0.00 89 1008.4
20190123024803 1 11 0.0 0.0 0.00 0.00 0.00 88 1008.5
20190123024303 1 11 0.0 0.0 0.00 0.00 0.00 88 1008.5
20190123023806 1 11 0.0 0.0 0.00 0.00 0.00 88 1008.6
20190123023303 1 11 0.0 0.0 0.00 0.00 0.00 88 1008.5
20190123022803 1 11 0.0 0.0 0.00 0.00 0.00 88 1008.6
20190123022306 1 11 0.0 0.0 0.00 0.00 0.00 88 1008.7
20190123021802 1 11 0.0 0.0 0.00 0.00 0.00 88 1008.7
20190123021302 1 11 0.0 0.0 0.00 0.00 0.00 88 1008.8
20190123020806 1 11 0.0 0.0 0.00 0.00 0.00 88 1008.8
20190123020302 1 11 0.0 0.0 0.00 0.00 0.00 88 1008.9
20190123015803 1 11 0.0 0.0 0.00 0.00 0.00 88 1009.0
20190123015306 1 11 0.0 0.0 0.00 0.00 0.00 88 1009.1
20190123014803 1 11 0.0 0.0 0.00 0.00 0.00 88 1009.2
20190123014303 1 11 0.0 0.0 0.00 0.00 0.00 88 1009.3
20190123013806 1 11 0.0 0.0 0.00 0.00 0.00 88 1009.3
20190123013303 1 11 0.0 0.0 0.00 0.00 0.00 88 1009.4
20190123012802 1 11 0.0 0.0 0.00 0.00 0.00 88 1009.5
20190123012306 1 11 0.0 0.0 0.00 0.00 0.00 88 1009.6
20190123011803 1 11 0.0 0.0 0.00 0.00 0.00 88 1009.6
20190123011303 1 11 0.0 0.0 0.00 0.00 0.00 88 1009.7
20190123010806 1 11 0.0 0.0 0.00 0.00 0.00 88 1009.7
20190123010303 1 11 0.0 0.0 0.00 0.00 0.00 88 1009.7
20190123005803 2 11 0.0 0.0 0.00 0.00 0.00 88 1009.7
20190123005307 2 11 0.0 0.0 0.00 0.00 0.00 88 1009.8
20190123004803 2 11 0.0 0.0 0.00 0.00 0.00 88 1009.8
20190123004303 2 11 0.0 0.0 0.00 0.00 0.00 88 1009.8
20190123003807 2 11 0.0 0.0 0.00 0.00 0.00 88 1009.8
20190123003303 2 11 0.0 0.0 0.00 0.00 0.00 88 1009.8
20190123002803 2 11 0.0 0.0 0.00 0.00 0.00 89 1009.8
20190123002307 2 11 0.0 0.0 0.00 0.00 0.00 88 1009.8
20190123001803 2 11 0.0 0.0 0.00 0.00 0.00 88 1009.9
20190123001303 2 11 0.0 0.0 0.00 0.00 0.00 89 1010.0
20190123000807 2 11 0.0 0.0 0.00 0.00 0.00 89 1010.0
20190123000303 2 11 0.0 0.0 0.00 0.00 0.00 89 1010.1
20190122235803 2 11 0.0 0.0 0.00 0.00 0.00 89 1010.1
20190122235307 2 11 0.0 0.0 0.00 0.00 0.00 89 1010.2
20190122234804 2 11 0.0 0.0 0.00 0.00 0.00 88 1010.3
20190122234303 2 11 0.0 0.0 0.00 0.00 0.00 88 1010.3
20190122233806 2 11 0.0 0.0 0.00 0.00 0.00 88 1010.3
20190122233303 2 11 0.0 0.0 0.00 0.00 0.00 89 1010.4
20190122232802 2 11 0.0 0.0 0.00 0.00 0.00 88 1010.4
20190122232307 2 11 0.0 0.0 0.00 0.00 0.00 88 1010.5
20190122231803 2 11 0.0 0.0 0.00 0.00 0.00 88 1010.6
20190122231303 2 11 0.0 0.0 0.00 0.00 0.00 88 1010.8
20190122230824 2 11 0.0 0.0 0.00 0.00 0.00 88 1010.8